Time,TemperatureF,DewpointF,PressureIn,WindDirection,WindDirectionDegrees,WindSpeedMPH,WindSpeedGustMPH,Humidity,HourlyPrecipIn,Conditions,Clouds,dailyrainin,SoftwareType,DateUTC
2013-03-05 00:00:00,35.1,18.0,30.09,WNW,297,0.0,1.0,51,0.00,,,0.00,weatherlink.com 1.10,2013-03-05 05:00:00,
2013-03-05 00:15:00,35.9,19.0,30.09,WNW,297,0.0,1.0,50,0.00,,,0.00,weatherlink.com 1.10,2013-03-05 05:15:00,
2013-03-05 00:30:00,37.4,19.0,30.08,WNW,297,0.0,0.0,47,0.00,,,0.00,weatherlink.com 1.10,2013-03-05 05:30:00,
2013-03-05 00:45:00,37.3,19.0,30.09,WNW,294,0.0,0.0,48,0.00,,,0.00,weatherlink.com 1.10,2013-03-05 05:45:00,
2013-03-05 01:00:00,37.3,19.0,30.09,WNW,294,0.0,1.0,47,0.00,,,0.00,weatherlink.com 1.10,2013-03-05 06:00:00,
2013-03-05 01:15:00,37.3,19.0,30.09,WNW,294,0.0,0.0,47,0.00,,,0.00,weatherlink.com 1.10,2013-03-05 06:15:00,
2013-03-05 01:30:00,37.3,20.0,30.10,WNW,294,0.0,0.0,49,0.00,,,0.00,weatherlink.com 1.10,2013-03-05 06:30:00,
2013-03-05 01:45:00,37.2,20.0,30.10,WNW,294,0.0,0.0,50,0.00,,,0.00,weatherlink.com 1.10,2013-03-05 06:45:00,
2013-03-05 02:00:00,37.5,19.0,30.10,WNW,294,0.0,0.0,48,0.00,,,0.00,weatherlink.com 1.10,2013-03-05 07:00:00,
2013-03-05 02:15:00,38.1,19.0,30.09,WNW,294,0.0,0.0,47,0.00,,,0.00,weatherlink.com 1.10,2013-03-05 07:15:00,
2013-03-05 02:30:00,39.0,19.0,30.09,WNW,294,0.0,0.0,45,0.00,,,0.00,weatherlink.com 1.10,2013-03-05 07:30:00,
2013-03-05 02:45:00,39.5,20.0,30.09,WNW,294,0.0,1.0,46,0.00,,,0.00,weatherlink.com 1.10,2013-03-05 07:45:00,
2013-03-05 03:00:00,39.4,20.0,30.09,WNW,294,0.0,0.0,46,0.00,,,0.00,weatherlink.com 1.10,2013-03-05 08:00:00,
2013-03-05 03:15:00,39.5,20.0,30.09,WNW,294,0.0,0.0,46,0.00,,,0.00,weatherlink.com 1.10,2013-03-05 08:15:00,
2013-03-05 03:30:00,39.7,20.0,30.09,WNW,294,0.0,0.0,46,0.00,,,0.00,weatherlink.com 1.10,2013-03-05 08:30:00,
2013-03-05 03:45:00,39.5,21.0,30.09,WNW,294,0.0,0.0,48,0.00,,,0.00,weatherlink.com 1.10,2013-03-05 08:45:00,
2013-03-05 04:00:00,39.3,21.0,30.09,WNW,294,0.0,0.0,48,0.00,,,0.00,weatherlink.com 1.10,2013-03-05 09:00:00,
2013-03-05 04:15:00,39.3,21.0,30.09,WNW,294,0.0,0.0,48,0.00,,,0.00,weatherlink.com 1.10,2013-03-05 09:15:00,
2013-03-05 04:30:00,39.0,22.0,30.09,WNW,294,0.0,0.0,50,0.00,,,0.00,weatherlink.com 1.10,2013-03-05 09:30:00,
2013-03-05 04:45:00,38.3,22.0,30.10,WNW,294,0.0,0.0,53,0.00,,,0.00,weatherlink.com 1.10,2013-03-05 09:45:00,
2013-03-05 05:00:00,37.3,21.0,30.10,WNW,294,0.0,0.0,52,0.00,,,0.00,weatherlink.com 1.10,2013-03-05 10:00:00,
2013-03-05 05:15:00,36.5,25.0,30.11,WNW,294,0.0,0.0,63,0.00,,,0.00,weatherlink.com 1.10,2013-03-05 10:15:00,
2013-03-05 05:31:00,35.7,24.0,30.10,WNW,294,0.0,0.0,63,0.00,,,0.00,weatherlink.com 1.10,2013-03-05 10:31:00,
2013-03-05 05:46:00,34.9,24.0,30.10,SSE,155,0.0,1.0,64,0.00,,,0.00,weatherlink.com 1.10,2013-03-05 10:46:00,
2013-03-05 06:01:00,34.7,24.0,30.10,SSE,155,0.0,0.0,66,0.00,,,0.00,weatherlink.com 1.10,2013-03-05 11:01:00,
2013-03-05 06:16:00,33.8,24.0,30.09,SSE,155,0.0,0.0,67,0.00,,,0.00,weatherlink.com 1.10,2013-03-05 11:16:00,
2013-03-05 06:31:00,33.0,25.0,30.10,SSE,155,0.0,1.0,71,0.00,,,0.00,weatherlink.com 1.10,2013-03-05 11:31:00,
2013-03-05 06:46:00,32.5,25.0,30.09,SSE,155,0.0,1.0,74,0.00,,,0.00,weatherlink.com 1.10,2013-03-05 11:46:00,
2013-03-05 07:01:00,32.3,25.0,30.09,SSE,155,0.0,0.0,74,0.00,,,0.00,weatherlink.com 1.10,2013-03-05 12:01:00,
2013-03-05 07:16:00,32.6,26.0,30.08,SSE,155,0.0,0.0,76,0.00,,,0.00,weatherlink.com 1.10,2013-03-05 12:16:00,
2013-03-05 07:31:00,33.5,27.0,30.08,SSE,155,0.0,0.0,78,0.00,,,0.00,weatherlink.com 1.10,2013-03-05 12:31:00,
2013-03-05 07:46:00,35.5,28.0,30.07,SSE,155,0.0,1.0,73,0.00,,,0.00,weatherlink.com 1.10,2013-03-05 12:46:00,
2013-03-05 08:01:00,37.5,28.0,30.08,SSE,153,0.0,1.0,69,0.00,,,0.00,weatherlink.com 1.10,2013-03-05 13:01:00,
2013-03-05 08:16:00,39.3,27.0,30.08,SE,141,0.0,2.0,62,0.00,,,0.00,weatherlink.com 1.10,2013-03-05 13:16:00,
2013-03-05 08:31:00,41.2,28.0,30.08,SE,145,1.0,2.0,59,0.00,,,0.00,weatherlink.com 1.10,2013-03-05 13:31:00,
2013-03-05 08:46:00,43.5,27.0,30.08,East,101,1.0,2.0,52,0.00,,,0.00,weatherlink.com 1.10,2013-03-05 13:46:00,
2013-03-05 09:01:00,45.0,28.0,30.07,West,262,1.0,1.0,51,0.00,,,0.00,weatherlink.com 1.10,2013-03-05 14:01:00,
2013-03-05 09:16:00,45.5,28.0,30.08,WNW,294,1.0,1.0,51,0.00,,,0.00,weatherlink.com 1.10,2013-03-05 14:16:00,
2013-03-05 09:31:00,45.2,29.0,30.07,WNW,283,0.0,1.0,54,0.00,,,0.00,weatherlink.com 1.10,2013-03-05 14:31:00,
2013-03-05 09:46:00,44.8,30.0,30.07,WNW,283,0.0,0.0,56,0.00,,,0.00,weatherlink.com 1.10,2013-03-05 14:46:00,
2013-03-05 10:01:00,44.1,30.0,30.07,WNW,283,0.0,1.0,59,0.00,,,0.00,weatherlink.com 1.10,2013-03-05 15:01:00,
2013-03-05 10:16:00,44.3,30.0,30.05,WNW,283,0.0,1.0,58,0.00,,,0.00,weatherlink.com 1.10,2013-03-05 15:16:00,
2013-03-05 10:31:00,46.3,30.0,30.05,WSW,256,0.0,2.0,53,0.00,,,0.00,weatherlink.com 1.10,2013-03-05 15:31:00,
2013-03-05 10:46:00,46.4,31.0,30.05,WSW,249,0.0,2.0,55,0.00,,,0.00,weatherlink.com 1.10,2013-03-05 15:46:00,
2013-03-05 11:01:00,46.3,32.0,30.05,WNW,297,1.0,1.0,57,0.00,,,0.00,weatherlink.com 1.10,2013-03-05 16:01:00,
2013-03-05 11:18:00,45.3,33.0,30.05,WSW,253,2.0,3.0,62,0.00,,,0.00,weatherlink.com 1.10,2013-03-05 16:18:00,
2013-03-05 11:32:00,43.3,38.0,30.05,ENE,68,0.0,3.0,81,0.00,,,0.00,weatherlink.com 1.10,2013-03-05 16:32:00,
2013-03-05 11:46:00,42.1,37.0,30.03,West,260,0.0,2.0,83,0.00,,,0.00,weatherlink.com 1.10,2013-03-05 16:46:00,
2013-03-05 12:02:00,41.4,38.0,30.02,West,260,0.0,0.0,87,0.00,,,0.00,weatherlink.com 1.10,2013-03-05 17:02:00,
2013-03-05 12:17:00,41.7,38.0,30.02,West,260,0.0,0.0,88,0.00,,,0.00,weatherlink.com 1.10,2013-03-05 17:17:00,
2013-03-05 12:31:00,41.8,39.0,30.02,West,260,0.0,0.0,90,0.01,,,0.01,weatherlink.com 1.10,2013-03-05 17:31:00,
2013-03-05 12:47:00,41.6,40.0,30.00,SSE,150,0.0,1.0,92,0.03,,,0.03,weatherlink.com 1.10,2013-03-05 17:47:00,
2013-03-05 13:02:00,41.4,40.0,29.99,SSE,159,0.0,2.0,93,0.05,,,0.05,weatherlink.com 1.10,2013-03-05 18:02:00,
2013-03-05 13:18:00,41.7,40.0,29.97,SE,146,1.0,4.0,94,0.06,,,0.06,weatherlink.com 1.10,2013-03-05 18:18:00,
2013-03-05 13:33:00,42.0,41.0,29.96,East,101,0.0,2.0,95,0.06,,,0.07,weatherlink.com 1.10,2013-03-05 18:33:00,
2013-03-05 13:48:00,42.2,41.0,29.95,South,174,0.0,3.0,95,0.06,,,0.09,weatherlink.com 1.10,2013-03-05 18:48:00,
2013-03-05 14:03:00,42.5,41.0,29.95,SE,136,0.0,1.0,95,0.04,,,0.09,weatherlink.com 1.10,2013-03-05 19:03:00,
2013-03-05 14:18:00,42.7,41.0,29.94,SW,214,0.0,3.0,95,0.03,,,0.09,weatherlink.com 1.10,2013-03-05 19:18:00,
2013-03-05 14:33:00,42.9,42.0,29.93,SE,128,0.0,1.0,95,0.02,,,0.09,weatherlink.com 1.10,2013-03-05 19:33:00,
2013-03-05 14:48:00,43.2,42.0,29.91,SE,143,0.0,1.0,96,0.00,,,0.09,weatherlink.com 1.10,2013-03-05 19:48:00,
2013-03-05 15:02:00,43.6,43.0,29.91,WSW,245,0.0,1.0,96,0.00,,,0.09,weatherlink.com 1.10,2013-03-05 20:02:00,
2013-03-05 15:18:00,43.8,43.0,29.91,NW,312,0.0,1.0,96,0.00,,,0.09,weatherlink.com 1.10,2013-03-05 20:18:00,
2013-03-05 15:34:00,44.1,43.0,29.90,NW,312,0.0,0.0,95,0.00,,,0.09,weatherlink.com 1.10,2013-03-05 20:34:00,
2013-03-05 15:49:00,44.3,43.0,29.89,East,88,0.0,1.0,95,0.00,,,0.09,weatherlink.com 1.10,2013-03-05 20:49:00,
2013-03-05 16:18:00,44.5,43.0,29.88,ESE,107,0.0,0.0,95,0.00,,,0.09,weatherlink.com 1.10,2013-03-05 21:18:00,
2013-03-05 16:34:00,44.7,43.0,29.88,ESE,107,0.0,0.0,95,0.00,,,0.09,weatherlink.com 1.10,2013-03-05 21:34:00,
2013-03-05 16:49:00,44.8,44.0,29.88,ESE,107,0.0,0.0,95,0.00,,,0.09,weatherlink.com 1.10,2013-03-05 21:49:00,
2013-03-05 17:04:00,44.7,43.0,29.87,ESE,107,0.0,1.0,95,0.00,,,0.09,weatherlink.com 1.10,2013-03-05 22:04:00,
2013-03-05 17:34:00,44.2,43.0,29.85,ENE,67,1.0,2.0,96,0.00,,,0.09,weatherlink.com 1.10,2013-03-05 22:34:00,
2013-03-05 17:49:00,44.0,43.0,29.84,North,4,0.0,1.0,96,0.00,,,0.09,weatherlink.com 1.10,2013-03-05 22:49:00,
2013-03-05 18:22:00,43.9,43.0,29.82,ENE,78,1.0,3.0,97,0.00,,,0.09,weatherlink.com 1.10,2013-03-05 23:22:00,
2013-03-05 18:36:00,44.0,43.0,29.80,ENE,67,1.0,3.0,97,0.00,,,0.09,weatherlink.com 1.10,2013-03-05 23:36:00,
2013-03-05 18:49:00,44.1,43.0,29.80,East,94,2.0,3.0,97,0.00,,,0.09,weatherlink.com 1.10,2013-03-05 23:49:00,
2013-03-05 19:05:00,44.3,44.0,29.80,ENE,66,2.0,2.0,97,0.00,,,0.09,weatherlink.com 1.10,2013-03-06 00:05:00,
2013-03-05 19:21:00,44.4,44.0,29.78,East,82,0.0,5.0,97,0.00,,,0.09,weatherlink.com 1.10,2013-03-06 00:21:00,
2013-03-05 19:34:00,44.4,44.0,29.77,ENE,69,2.0,2.0,97,0.00,,,0.09,weatherlink.com 1.10,2013-03-06 00:34:00,
2013-03-05 19:52:00,44.3,44.0,29.73,SE,127,1.0,3.0,97,0.00,,,0.09,weatherlink.com 1.10,2013-03-06 00:52:00,
2013-03-05 20:05:00,44.2,43.0,29.72,ESE,117,1.0,4.0,96,0.00,,,0.09,weatherlink.com 1.10,2013-03-06 01:05:00,
2013-03-05 20:22:00,44.2,43.0,29.70,ESE,106,2.0,4.0,96,0.00,,,0.09,weatherlink.com 1.10,2013-03-06 01:22:00,
2013-03-05 20:36:00,44.3,43.0,29.69,SSE,150,0.0,4.0,96,0.00,,,0.09,weatherlink.com 1.10,2013-03-06 01:36:00,
2013-03-05 20:52:00,44.4,43.0,29.69,SE,133,1.0,2.0,96,0.02,,,0.11,weatherlink.com 1.10,2013-03-06 01:52:00,
2013-03-05 21:07:00,44.4,43.0,29.67,East,86,1.0,4.0,96,0.02,,,0.11,weatherlink.com 1.10,2013-03-06 02:07:00,
2013-03-05 21:22:00,44.6,44.0,29.66,NE,49,2.0,4.0,96,0.04,,,0.13,weatherlink.com 1.10,2013-03-06 02:22:00,
2013-03-05 21:37:00,44.7,44.0,29.64,ENE,63,2.0,3.0,96,0.04,,,0.13,weatherlink.com 1.10,2013-03-06 02:37:00,
2013-03-05 21:52:00,44.8,44.0,29.64,ESE,102,0.0,2.0,96,0.06,,,0.17,weatherlink.com 1.10,2013-03-06 02:52:00,
2013-03-05 22:07:00,45.0,44.0,29.64,NE,39,0.0,2.0,97,0.11,,,0.23,weatherlink.com 1.10,2013-03-06 03:07:00,
2013-03-05 22:22:00,44.9,44.0,29.65,ESE,114,1.0,4.0,97,0.15,,,0.28,weatherlink.com 1.10,2013-03-06 03:22:00,
2013-03-05 22:37:00,45.1,44.0,29.63,SE,139,2.0,5.0,97,0.15,,,0.28,weatherlink.com 1.10,2013-03-06 03:37:00,
2013-03-05 22:52:00,45.0,44.0,29.61,ESE,121,2.0,2.0,97,0.11,,,0.28,weatherlink.com 1.10,2013-03-06 03:52:00,
2013-03-05 23:07:00,45.4,45.0,29.61,SE,141,0.0,0.0,97,0.05,,,0.28,weatherlink.com 1.10,2013-03-06 04:07:00,
2013-03-05 23:22:00,45.6,45.0,29.59,SE,145,0.0,1.0,97,0.00,,,0.28,weatherlink.com 1.10,2013-03-06 04:22:00,
2013-03-05 23:37:00,45.5,45.0,29.58,SE,127,0.0,1.0,97,0.00,,,0.28,weatherlink.com 1.10,2013-03-06 04:37:00,
2013-03-05 23:52:00,45.3,45.0,29.57,ESE,106,0.0,1.0,97,0.00,,,0.28,weatherlink.com 1.10,2013-03-06 04:52:00,